Location: Bronnegerveen
(52.9548°N, 6.8388°E)
Time: 01:43:53
(UTC+00:00)

USA 229 DEB - Pass Details

Date: 15 June 2025
Orbit: 852 x 1359 km, 63.4° (Epoch: 26 June)

Event Time Altitude Azimuth Distance (km) Brightness Sun altitude
Rises 00:08:52 0° 311° (NW) 3,882 7.1 -13.3°
Reaches altitude 10° 00:11:24 10° 313° (NW) 2,993 6.5 -13.3°
Maximum altitude 00:18:40 84° 42° (NE) 1,231 4.1 -13.1°
Drops below altitude 10° 00:26:48 10° 132° (SE) 3,324 6.0 -12.8°
Sets 00:29:45 0° 133° (SE) 4,332 6.6 -12.7°
